Home   Weather   Kannauj   Past weeks

Flag for India Past Weather in Kannauj, Uttar Pradesh, India — Yesterday and Last 2 Weeks

Now
95 °F

Passing clouds.


Feels Like: 93 °F
Forecast: 79 / 102 °F
Wind: 9 mph from Northwest

Location: Lucknow / Amausi

Current Time: Apr 29, 2017 at 9:34:57 pm

Latest Report: Apr 29, 2017 at 9:00 pm


Visibility: 2 mi

Pressure: 29.68 "Hg

Humidity: 25%

Dew Point: 54 °F

Location of KannaujLocation

Past Weather in Kannauj — Graph

°F

Kannauj Temperature Yesterday

Maximum temperature yesterday: 108 °F (at 2:00 pm)
Minimum temperature yesterday: 75 °F (at 4:00 am)
Average temperature yesterday: 94 °F

High & Low Weather Summary for the Past Weeks

 TemperatureHumidityPressure
High109 °F (Apr 15, 4:00 pm)89% (Apr 20, 5:00 am)29.77 "Hg (Apr 20, 5:00 am)
Low73 °F (Apr 16, 5:30 am)9% (Apr 25, 12:30 pm)29.47 "Hg (Apr 20, 4:00 pm)
Average92 °F43%29.62 "Hg
* Reported Apr 14 7:30 pm — Apr 29 8:00 pm, Kannauj, Weather by CustomWeather, © 2017

Note: Actual official high and low records may vary slightly from our data, if they occured in-between our weather recording intervals... More about our weather records

Advertising

Kannauj Weather History for the Previous 24 Hours

Scroll right to see more
 ConditionsComfort  
Time TempWeatherWind HumidityBarometerVisibility
8:00 pm
Sat, Apr 29
95 °FClear.No wind25%29.65 "Hg1 mi
7:30 pm97 °FHaze.No wind22%29.65 "Hg1 mi
7:00 pm100 °FHaze.2 mph21%29.62 "Hg2 mi
6:00 pm106 °FHaze.2 mph17%29.62 "Hg2 mi
5:30 pm108 °FDuststorm.3 mph14%29.62 "Hg2 mi
5:00 pm109 °FDuststorm.3 mph13%29.62 "Hg2 mi
4:30 pm108 °FDuststorm.2 mph15%29.62 "Hg2 mi
4:00 pm109 °FDuststorm.3 mph15%29.62 "Hg2 mi
3:30 pm109 °FDuststorm.2 mph14%29.65 "Hg2 mi
3:00 pm109 °FDuststorm.3 mph15%29.65 "Hg2 mi
2:30 pm108 °FDuststorm.3 mph16%29.68 "Hg2 mi
2:00 pm108 °FDuststorm.3 mph18%29.68 "Hg2 mi
1:00 pm109 °FDuststorm.6 mph17%29.71 "Hg2 mi
12:30 pm108 °FDuststorm.3 mph17%29.71 "Hg2 mi
12:00 pm106 °FDuststorm.3 mph19%29.74 "Hg2 mi
11:30 am106 °FDuststorm.2 mph19%29.74 "Hg2 mi
11:00 am104 °FDuststorm.2 mph20%29.74 "Hg2 mi
10:30 am102 °FDuststorm.2 mph18%29.74 "Hg2 mi
10:00 am100 °FDuststorm.2 mph24%29.74 "Hg2 mi
9:30 am97 °FDuststorm.2 mph28%29.74 "Hg2 mi
9:00 am95 °FDuststorm.2 mph30%29.74 "Hg2 mi
8:30 am91 °FHaze.No wind32%29.74 "Hg2 mi
7:30 am84 °FHaze.No wind43%29.74 "Hg2 mi
7:00 am79 °FScattered clouds.No wind51%29.71 "Hg2 mi
6:30 am75 °FScattered clouds.No wind57%29.71 "Hg2 mi
6:00 am75 °FScattered clouds.No wind57%29.68 "Hg2 mi
5:30 am75 °FPassing clouds.No wind57%29.68 "Hg2 mi
5:00 am77 °FPassing clouds.No wind54%29.68 "Hg2 mi
4:00 am81 °FPassing clouds.No wind45%29.65 "Hg2 mi
3:00 am81 °FPassing clouds.No wind42%29.62 "Hg2 mi
1:00 am84 °FPassing clouds.No wind37%N/A2 mi
12:00 am86 °FHaze.3 mph33%29.65 "Hg2 mi
10:00 pm
Fri, Apr 28
91 °FHaze.5 mph28%29.68 "Hg2 mi
9:00 pm90 °FHaze.No wind29%29.65 "Hg2 mi
Weather by CustomWeather, © 2017

See weather overviewHow to use our weather pages